Location: Borbetomagus
(49.6328°N, 8.3592°E)
Time: 06:53:38
(UTC+00:00)

Terra - Pass Details

Date: 19 May 2025
Orbit: 690 x 692 km, 98.0° (Epoch: 14 June)

Event Time Altitude Azimuth Distance (km) Brightness Sun altitude
Exits shadow 20:50:05 - 191° (SSW) 2,435 4.2 -12.6°
Reaches altitude 10° 20:50:52 10° 195° (SSW) 2,138 4.0 -12.7°
Maximum altitude 20:55:13 38° 263° (W) 1,060 3.0 -13.1°
Drops below altitude 10° 20:59:37 10° 332° (NNW) 2,154 5.8 -13.5°
Sets 21:02:01 0° 340° (NNW) 3,076 6.8 -13.7°
